CAPE
1364 1876 1975 2220 2153 1840 2648 2808 2605 2454 2519 2518 2128 2202 2217 2060 1969 1777 1611 1551 1440 1365 975 1084 1356 1353 1108 1036 1141 1114 970 813 770 749 660 717 676 1082 1894 2138 2215 2236 2195 2435 2398 2431 2494 2677 2725 2779 2852 3047 2922 2980 3018 2942 3005 3242 3240 3200 3248 3250 3090 3248 3326 3315 3242 3184 3126 3071 3116 3089 3027 2856 2725 2694 2570 2648 2638 2570 2512 2510 2520 2436 2448
207 1216 1605 1745 1732 1452 2682 2789 2664 2514 2646 2679 2369 2303 2256 2147 2015 1878 1742 1481 1039 1047 1315 946 1059 1227 1207 1184 1076 1047 841 662 689 699 757 752 756 1121 1950 2124 2111 2197 2176 2383 2476 2533 2588 2697 2760 2753 2773 3016 2938 2955 3110 3177 3108 3119 3200 3218 3285 3254 3226 3249 3304 3346 3397 3383 3416 3388 3341 3304 3239 3160 3044 2922 2817 2777 2737 2659 2626 2636 2547 2557 2576
219 2 0 424 1150 1302 2507 2686 2728 2685 2829 2736 2720 2502 2257 1975 1974 1936 1867 1465 1144 1018 954 648 977 1298 1510 1314 1240 1134 917 824 586 752 893 856 1087 1163 1873 2286 2324 2290 2422 2426 2504 2543 2581 2715 2650 2707 2820 2909 3077 2784 3105 3281 3262 3184 3175 3232 3312 3385 3297 3245 3197 3186 3225 3205 3431 3532 3573 3598 3532 3476 3281 3145 3048 2938 2927 2851 2825 2804 2745 2420 2405
1207 1188 820 454 246 1314 2103 2498 2671 2575 2802 2753 2793 2721 2474 2007 2022 2050 1957 1591 1385 929 849 700 912 988 1101 1212 1131 1213 1359 1360 846 713 861 1008 1281 1385 1397 2224 2285 2593 2539 2511 2579 2634 2568 2661 2649 2621 2877 2980 3054 2746 2983 3306 3215 3220 3238 3172 3179 3167 3093 3152 3077 3122 3139 3102 3107 3318 3415 3573 3593 3559 3458 3418 3374 3236 3144 3169 3136 3046 2930 2842 2618
1981 1411 1106 741 919 1419 1818 2118 2163 2326 2339 2514 2575 2458 2341 2072 1988 2082 1868 1362 894 892 812 706 712 911 1110 1192 1168 1152 1282 1467 1342 900 877 1091 1370 1433 1457 1822 2024 2538 2626 2603 2661 2586 2660 2678 2702 2765 2869 3054 3051 2868 2723 3188 3169 3126 3156 3272 3223 3184 3096 3030 3079 3137 3143 3088 3060 3113 3144 3188 3514 3701 3645 3526 3438 3391 3297 3195 3068 3175 3178 3049 2954
2302 1936 1682 1241 1051 1432 1596 1436 1524 1639 1623 1703 2219 2150 1912 2142 2030 1520 1330 951 612 629 829 767 830 673 810 1102 1146 1132 1128 1264 1315 1382 1026 997 1410 1523 1516 1693 1954 2066 2208 2689 2801 2682 2710 2676 2728 2866 2876 2893 2913 3012 2734 2764 2865 2945 3025 3167 3175 3178 2982 2988 2984 3185 3214 3133 3089 3046 3070 3110 3058 3149 3304 3038 3113 3299 3173 3151 3208 3136 3026 3107 3146
2448 2364 1759 1359 1023 865 940 920 1222 1090 1152 1047 1340 1668 1465 1128 1301 936 784 993 600 498 646 565 821 922 795 824 983 1364 1245 971 1080 1316 1349 961 1257 1498 1528 1518 1784 1960 1986 2238 2587 2860 2835 2777 2716 2784 2906 2931 2861 2885 2839 2480 2580 2745 2861 2932 3029 3054 2999 3022 2914 3025 3158 3113 3082 3084 3030 3002 2976 3003 2965 2887 2918 3062 3141 3169 3048 2911 2820 2789 2923
2731 2401 2195 1876 1555 1217 1336 1498 1420 1068 1221 1276 1321 1245 1155 1493 1461 1101 792 861 513 275 460 276 391 611 674 760 1022 1201 1076 1141 1010 1077 1192 1113 1015 1395 1516 1440 1532 1789 2041 2000 2205 2442 2861 2899 2848 2911 2963 2943 2926 2860 2898 2785 2564 2501 2686 2814 2881 2932 2973 3002 3033 2997 3223 3105 2987 3033 3078 3029 2957 2977 2970 2950 3004 3039 3017 2905 2788 2768 2795 2713 2771
2740 2780 2466 2178 1885 2066 1768 1746 1906 1346 1582 1775 1790 1574 1159 824 978 925 884 892 830 587 394 307 262 316 486 616 761 1007 973 1299 1216 1143 1160 1163 1021 1276 1547 1517 1456 1985 1837 1850 1942 2125 2715 3019 2903 2898 2970 3018 2895 2900 2911 2882 2845 2493 2434 2430 2621 2597 2909 2942 2947 2887 3100 3131 2999 3114 3056 2960 2965 2884 2940 3016 3013 3013 2953 2837 2778 2771 2652 2737 2943
2532 2588 2491 2432 2247 1936 2615 1900 1722 1576 1476 1387 968 1150 1255 1180 978 711 712 795 648 659 588 392 386 362 324 420 731 806 802 1072 1277 1390 1033 1042 1174 1084 1450 1584 1537 1464 1604 1607 1697 1800 1931 2692 3111 3030 2977 2984 2998 2929 2824 2831 2815 2802 2668 2634 2658 2553 2602 2750 2806 2856 2929 3054 3060 3013 3110 2928 2801 2738 2765 2900 3142 3119 3085 3120 3070 2912 2771 2953 2953
2406 2424 2376 2345 2266 2129 2008 2026 1755 1483 1452 1463 1385 1445 1272 903 756 923 753 736 843 874 859 785 532 533 506 465 554 819 924 1333 1324 1282 1080 897 1046 1179 1075 1414 1561 1549 1453 1408 1475 1540 1595 1673 2393 2685 2625 2921 3005 2972 3016 2914 2832 2738 2811 2868 2818 2684 2592 2578 2492 2459 2640 2989 2994 3043 3074 3080 2904 2756 2762 2912 3281 3308 3334 3290 3225 3084 2877 2957 2840
1913 1992 2105 2600 2334 2300 2156 2180 2217 1881 1744 1313 1149 1196 1136 1113 1095 876 934 887 856 965 1003 1057 1000 680 866 736 627 733 991 1275 1163 932 1130 1044 902 1000 1082 980 1354 1595 1626 1492 1227 1292 1341 1390 1816 2246 2454 2635 3024 3011 3072 2989 2855 2735 2697 2808 2899 2842 2798 2732 2659 2699 2684 2849 2726 2843 3041 3084 3094 2910 2765 2969 3211 3298 3401 3442 3375 3200 3179 3051 2892
1858 1801 1784 2069 3000 2476 2190 2267 2220 1660 918 1222 1438 1177 1144 1151 1112 1125 1040 943 966 1104 945 973 1082 965 1016 1154 1054 1008 1289 1412 1047 884 851 1134 1138 898 913 927 870 1448 1623 1558 1430 1238 1042 1068 1147 1490 2100 2246 2498 2856 2976 2986 2998 2938 2838 2812 2889 2910 2858 2884 2716 2703 2606 2613 2540 2659 2777 3081 3302 3233 3143 3124 3160 3171 3204 3295 3381 3298 3211 3121 2992
1928 1889 1808 1926 2080 2144 2193 1955 1801 1794 1440 1544 1390 1163 1262 1159 1071 1122 1032 1066 1128 1245 1123 1230 1046 943 840 791 771 812 831 775 824 845 854 997 1305 1248 1394 1086 862 970 1432 1602 1557 1464 1373 1211 944 885 1231 1783 1942 1942 2360 2684 2865 3083 3024 3091 3073 3016 2934 2931 2860 2846 2722 2652 2677 2746 2736 2762 2879 3060 3143 3149 3168 3185 3146 3108 3151 3192 3212 3174 3067
2051 2213 1973 1982 2096 2042 1885 1938 2012 2068 2189 1011 726 975 1010 1041 947 1210 1226 1091 1131 1645 1410 1160 1051 1040 869 797 806 706 831 792 646 742 824 1040 1173 1282 1549 1489 1351 1212 1114 1226 1405 1496 1497 1429 1282 1151 1050 976 1325 1511 1527 1868 2390 2783 3137 3193 3100 3116 3122 3043 2996 2904 2908 2734 2851 2864 2852 2852 2726 2707 2674 2698 2833 2984 2973 2948 2974 3001 3056 3130 3054
2244 2326 1943 1869 1821 1681 1662 1858 2130 2247 2133 1493 1217 1221 1294 1159 1196 1233 1252 1210 1242 1280 1420 1304 1086 1009 886 842 796 685 541 637 617 521 692 870 1004 1184 1484 1522 1481 1593 1473 1374 1160 1322 1411 1413 1341 1293 1244 1178 1102 1167 1234 1194 1610 2520 2928 3162 3296 3136 2984 3012 3040 3030 2993 2918 2915 2929 2927 2882 2817 2748 2685 2659 2624 2571 2608 2680 2732 2766 2827 2922 2948
2507 2026 1812 1617 1659 1503 1508 2020 1794 1936 1706 1490 1469 1508 1326 1180 930 1160 1295 1317 1443 1199 1212 1186 1123 1110 883 836 725 610 580 465 966 836 863 886 961 1168 1431 1479 1389 1450 1777 1852 1555 1427 1378 1333 1354 1359 1350 1294 1234 1138 1274 1230 1323 1761 2300 3030 3301 3357 2975 2936 3081 3140 3099 3078 3092 3039 2990 2903 2793 2738 2773 2832 2776 2634 2523 2498 2542 2609 2679 2734 2770
2349 2271 1876 1995 1712 1751 1536 1620 1955 1994 1803 1820 1515 1172 1063 868 1081 1249 1501 1452 1327 1114 1188 1119 1170 1173 1017 764 651 596 726 1094 843 710 1607 1270 1221 1349 1611 1701 1528 1384 1517 1700 1843 1884 1783 1618 1463 1526 1340 1316 1315 1288 1401 1373 1379 1232 1432 1846 2986 3544 3279 3222 3134 3006 3093 3262 3264 3190 3167 3096 2968 2866 2814 2774 2767 2720 2634 2570 2554 2574 2592 2605 2588
1994 1835 1891 2084 2032 1833 1929 1902 1952 2026 2395 1737 1473 1403 1217 1257 1158 1314 1589 1455 1406 1229 1152 1282 1148 1162 1131 1181 1346 1521 1545 981 865 692 592 1328 1521 1641 1813 1917 1939 1794 1601 1491 1549 1580 1675 1773 1743 1644 1688 1658 1587 1591 1574 1508 1564 1534 1673 1892 2427 3002 3290 3354 3368 3216 3051 3074 3157 3182 3177 3171 3152 3053 2957 2859 2752 2677 2632 2600 2590 2585 2573 2568 2584
1925 2047 2231 2190 2362 2108 2199 2235 2246 2246 2047 1872 1994 1335 1142 1298 1380 1168 1001 1679 1620 1463 1350 1331 1274 1192 1285 1388 1505 1453 1236 1238 1122 954 774 863 922 1676 1824 1893 2076 2107 2067 1929 1773 1605 1427 1406 1491 1564 1600 1619 1706 1802 1825 1818 1778 1738 1863 2356 2614 2821 2958 3250 3406 3433 3349 3196 3193 3026 3013 3048 3098 3120 3045 2903 2769 2678 2624 2608 2607 2644 2667 2602 2588
2093 2299 2272 2168 2742 2602 2400 2395 2294 2141 2571 2400 2244 1542 1102 1224 1599 1342 1117 1483 1769 1718 1299 1042 1331 1448 1231 1230 1112 1150 1296 1480 1451 1183 990 894 985 1034 1131 1808 2066 2062 2130 2109 2063 1956 1818 1648 1464 1364 1320 1367 1423 1511 1664 1718 1825 1849 1932 2374 2742 2807 3049 3172 3370 3525 3543 3522 3457 3315 3091 3012 3002 3011 2984 2908 2824 2741 2660 2624 2632 2763 2781 2762 2664
2001 2240 2112 2112 2070 2534 2562 2412 2321 2025 2812 2432 940 1204 1286 1363 1518 1442 1441 1724 1810 2186 1894 1318 1262 1333 1274 1173 1218 1058 915 834 822 1013 1001 815 823 903 1107 1070 1413 1907 2146 2149 2080 2006 1926 1819 1689 1549 1433 1378 1479 1467 1534 1744 1851 1854 1889 2450 2761 3011 3102 3374 3661 3801 3804 3838 3832 3766 3415 3241 3144 3064 2972 2889 2848 2820 2797 2778 2761 2747 2718 2698 2669
184 1816 2034 1937 2064 2374 2441 2414 2068 2387 2026 668 381 378 596 1290 1787 2045 2114 1799 1714 1702 2135 1904 1599 1491 1244 1261 1339 871 795 865 887 909 929 910 924 1002 1072 1094 1052 1189 1384 1844 2058 2018 1895 1766 1633 1543 1459 1439 1440 1629 1656 1601 1987 2207 2469 2623 2702 2959 3346 3593 3790 3984 4129 4184 4182 4122 3836 3514 3361 3282 3183 3049 2944 2904 2874 2855 2858 2835 2790 2718 2698
481 257 1246 1827 1823 1963 2394 2164 1755 1098 450 412 453 317 374 434 688 1375 1847 1836 1755 1900 1796 1913 1893 1799 1669 1670 1522 1358 1228 1148 887 892 846 1036 1063 1117 1174 1123 1013 1044 1124 1464 1665 1734 1760 1712 1644 1536 1469 1387 1464 1736 1805 1771 1777 2379 2652 2839 2815 2853 2984 3337 3768 4161 4257 4409 4226 4362 4165 3801 3616 3522 3439 3327 3193 3110 3044 3026 3055 2976 2924 2822 2722
202 186 22 382 849 1317 1661 1160 1170 1223 858 664 764 735 681 640 724 635 396 354 820 1595 1903 1881 1888 1935 1854 1714 1558 1444 1418 1398 1309 1159 1134 1223 1130 901 906 838 782 811 1004 1473 1584 1770 1738 1640 1535 1530 1583 1600 1695 1896 2089 2107 1999 2342 3045 2631 2828 2777 2786 2871 3106 3547 4004 4004 4339 3960 4440 4131 3960 3821 3807 3675 3528 3356 3282 3248 3210 3111 3023 2955 2938
10 101 66 108 256 377 224 193 304 489 538 389 467 509 804 749 799 245 136 102 176 422 702 1160 1482 1735 1737 1644 1551 1533 1509 1448 1397 1252 1069 945 862 825 835 854 840 908 1053 1224 1344 1446 1507 1718 1783 1712 1654 1677 1734 1806 1979 2258 2429 2861 3136 2982 2610 2616 2572 2572 2772 3117 3576 3874 3904 4056 4327 4596 4533 4274 4309 4285 4095 3834 3686 3529 3426 3256 3169 3116 2839
0 59 10 0 8 35 32 14 0 20 41 0 9 0 109 488 447 338 285 230 150 193 337 566 667 598 641 838 1016 1170 1232 1240 1183 1147 1093 1004 921 916 920 926 893 1050 1089 1054 1079 1194 1333 1390 1740 1944 1916 1857 1786 1766 1806 1986 2500 2937 3313 3293 2911 2591 2488 2381 2351 2598 2953 3323 3648 3838 4128 4536 4502 4788 4654 4662 4536 4353 4136 3973 3746 3677 3481 3387 3277
0 2 2 0 0 0 0 0 0 0 32 35 20 28 83 108 54 24 5 391 255 126 42 73 99 138 182 230 274 300 331 438 615 956 1079 1065 1027 1012 984 948 921 955 971 1006 956 945 994 1118 1166 1571 1868 1981 2047 2024 2269 2569 2518 3086 3514 3215 2834 2724 2604 2467 2332 2191 2398 2954 3378 3540 3616 3906 4668 4896 4948 4864 4883 4669 4418 4339 4131 4048 3948 3809 3668
0 0 0 0 3 0 0 0 0 0 7 62 96 74 58 8 9 2 0 0 449 327 175 169 102 74 49 80 74 59 154 354 394 645 755 946 989 991 1034 1024 985 974 985 959 921 851 858 1023 1082 1260 1738 1964 1984 2066 2271 2460 2716 3033 2886 3007 2944 2757 2598 2486 2344 2139 1882 1872 2245 2606 2912 3167 3548 4202 4629 4877 5060 4976 4788 4599 4404 4313 4188 4031 3755
0 0 0 0 84 673 1 2 12 0 10 42 67 36 22 2 8 29 8 2 19 34 45 223 113 79 415 262 154 184 222 189 150 202 372 828 1128 1163 1154 1142 1126 1147 1088 935 815 776 852 953 1073 1132 1622 2207 2195 2244 2246 2321 2627 2982 2853 2580 2496 2463 2408 2283 2113 1957 1878 1807 1732 1805 2110 2473 2860 3328 3838 4282 4581 4788 5022 4895 4671 4600 4450 3899 3693
39 0 0 0 0 3 14 8 3 1 0 2 69 7 30 36 252 189 90 32 4 4 14 180 220 222 122 73 38 57 36 45 47 57 115 246 804 1429 1421 1351 1298 1238 1161 1114 987 895 944 1032 963 1000 1127 1756 2207 2413 2670 2673 2685 2864 2862 2829 2700 2584 2524 2463 2407 2376 2310 2226 2117 1976 1882 2148 2752 3252 3623 3984 4274 4430 4526 4574 4774 4609 3671 4154 3855
0 0 0 1 24 1 0 1 3 1 0 1 4 14 91 94 81 72 45 0 0 1 2 10 69 93 45 27 24 21 23 16 12 7 11 25 103 299 906 1390 1506 1434 1343 1256 1163 1015 860 939 953 983 1093 1488 1707 1819 1932 2331 2859 3070 2903 2874 2958 3007 2961 2886 2844 2821 2787 2704 2571 2419 2233 2092 2319 3161 3830 4129 3936 4129 4267 4286 4358 4435 4382 4231 3945
0 0 0 0 0 3 0 39 19 0 0 0 5 98 101 16 11 62 41 10 12 4 72 0 0 15 75 15 40 82 58 37 9 3 5 4 0 0 6 217 631 1070 1390 1418 1343 1276 1176 1130 1141 1124 1162 1242 1310 1411 1528 1612 1710 1996 2588 2880 2934 2922 2928 2942 2912 2840 2749 2641 2524 2400 2295 2379 2553 2669 2747 3215 3576 3773 3931 4040 4074 4081 4193 4194 4001
2 35 17 102 30 0 6 22 9 1 0 0 11 242 20 15 12 183 90 20 13 11 4 6 2 21 33 70 80 60 62 25 37 57 56 60 32 25 3 5 36 216 705 1233 1355 1296 1278 1225 1232 1246 1233 1311 1406 1414 1651 1798 1889 1962 2036 2177 2426 2628 2698 2684 2656 2666 2638 2541 2395 2506 2559 2453 2358 2386 2486 2547 2550 3056 3498 3725 3735 3740 3775 3797 3826
81 35 92 136 109 82 106 112 53 18 63 139 160 187 10 8 8 30 117 60 11 18 27 4 2 9 73 196 84 25 3 0 0 14 70 79 96 64 101 174 360 382 391 675 1120 1270 1197 1094 1002 783 821 1066 1275 1412 1466 1715 1968 1962 2020 2167 2295 2375 2522 2535 2550 2520 2486 2467 2426 2362 2297 2246 2213 2195 2127 2103 2170 2157 2138 2467 2893 3244 3411 3458 3486
178 364 169 87 86 67 87 149 122 38 16 17 29 53 14 5 19 11 12 13 8 9 17 21 6 63 143 44 1 0 0 0 0 0 20 71 119 183 246 255 290 477 508 591 621 938 883 835 895 996 1194 1310 1297 1173 1103 1648 1804 1895 2017 2144 2256 2404 2499 2547 2549 2489 2422 2390 2385 2369 2332 2284 2232 2178 2126 2076 2020 2017 2030 2055 1942 2101 2594 2993 3184
151 76 127 264 210 172 137 115 137 132 105 144 127 72 63 83 46 16 2 0 0 3 6 6 396 516 48 0 0 0 0 0 0 0 0 16 82 196 300 383 505 515 592 626 602 668 752 793 872 1032 1129 1159 1315 1531 1685 1610 1537 1798 1972 2037 2182 2282 2326 2367 2351 2352 2374 2384 2347 2261 2200 2171 2147 2126 2081 2052 2102 2202 2206 2116 1963 1940 1951 2022 2318
60 82 128 72 378 263 181 222 235 203 178 190 171 125 114 86 58 41 26 13 12 10 6 20 154 146 97 21 0 0 0 0 0 0 0 0 34 183 350 462 477 487 515 564 598 630 688 684 711 841 902 1038 1079 1181 1224 1423 1514 1443 1270 1157 1195 1311 1392 1524 1688 1825 1978 2006 1833 1655 1638 1695 1842 2050 2181 2212 2195 2141 2083 2063 2147 2227 2178 2056 1924
109 127 104 83 181 204 230 221 225 210 200 159 163 194 190 163 152 104 33 21 77 146 183 193 257 165 54 8 2 0 0 0 0 0 0 0 104 257 423 398 374 324 424 443 472 538 605 706 808 872 892 951 1028 935 961 1254 1440 1421 1266 1110 936 852 1108 1597 1724 1518 1672 1947 2060 2118 2190 2232 2234 2244 2238 2240 2200 2185 2240 2263 2190 2163 2060 1910 1663
218 168 190 273 270 264 267 253 242 221 204 218 230 232 227 216 212 196 155 108 148 204 239 265 222 48 23 14 4 1 0 0 0 0 0 70 120 80 111 224 312 341 370 343 419 524 625 684 711 700 697 706 711 790 854 812 863 971 1248 1203 1084 1090 1272 1314 1295 1413 1851 2081 2112 2133 2167 2198 2296 2378 2426 2435 2401 2349 2295 2229 2125 2089 2114 2156 2134
647 566 400 349 324 305 296 305 300 287 284 296 320 312 311 307 302 271 237 177 163 206 188 139 66 40 30 20 12 1 21 300 400 124 4 1 2 1 40 151 408 505 524 531 550 622 620 566 549 577 598 583 594 615 616 566 559 552 602 1230 1507 1553 1436 1220 1186 1314 1374 1397 1416 1412 1376 1442 1546 1637 1780 2022 2126 2296 2518 2670 2675 2608 2484 2387 2247
308 420 417 455 457 414 340 236 141 248 265 296 916 1218 762 733 406 221 178 186 184 158 120 96 65 41 31 23 24 372 389 246 22 12 8 3 2 39 157 192 374 388 472 583 606 583 590 594 591 601 591 584 569 544 486 470 494 761 1000 921 867 902 1092 1276 1315 1220 930 1066 1077 1015 1010 1070 1211 1251 1304 1440 1662 2247 2196 2189 2232 2257 2265 2268 2258
431 438 507 228 197 97 58 48 80 128 114 236 788 12 21 27 84 28 31 43 64 85 87 60 30 21 20 18 6 58 294 467 592 134 25 22 21 66 206 261 242 582 606 593 613 593 625 680 667 649 654 685 707 690 662 613 570 679 739 823 894 1011 1092 1044 977 867 767 772 856 948 979 1043 1250 1304 1319 1449 1672 1951 2191 2362 2425 2443 2421 2375 2303
452 351 194 91 66 39 60 135 90 63 125 547 13 9 10 10 14 103 25 25 31 29 29 25 20 17 16 17 6 7 12 15 76 48 293 317 205 286 380 404 343 363 466 831 829 690 711 671 537 497 556 580 551 569 656 684 638 580 643 863 939 965 958 902 828 824 931 1658 1327 1349 1407 1362 1495 1588 1634 1721 1828 1955 2139 2298 2429 2567 2642 2684 2682
593 250 184 211 72 22 16 4 12 14 10 515 10 16 10 6 11 49 20 14 17 21 18 21 23 22 19 16 7 5 1 131 367 123 16 46 282 432 384 374 502 446 489 496 747 1029 756 663 535 511 516 482 470 595 802 832 767 791 815 806 814 848 860 887 908 930 1010 1684 1800 1533 1283 1182 1111 1156 1178 1186 1242 1334 1454 1604 1780 2033 2351 2605 2724
276 214 53 37 0 2 13 15 12 15 15 217 52 25 22 13 11 38 34 11 9 9 10 16 20 24 28 4 2 0 0 15 2 2 14 128 140 60 48 19 12 222 554 762 718 883 1371 1187 818 646 592 583 616 676 928 950 867 857 805 693 653 668 771 865 892 958 1081 1173 1154 1128 1155 1176 1147 1102 1095 1132 1142 1201 1338 1464 1572 1667 1795 1987 2241
143 71 0 0 6 77 12 16 16 19 7 45 20 23 17 15 14 83 30 18 15 17 18 24 35 58 60 36 7 7 1 2 37 263 270 209 167 69 43 38 62 89 222 269 216 187 320 399 473 588 618 695 525 505 592 766 840 875 840 772 706 669 780 884 884 897 880 795 1083 1212 1200 1174 1140 1033 1029 1046 992 919 966 1108 1328 1569 1739 1820 1827
6 0 0 4 13 6 7 14 13 4 3 10 19 22 22 24 22 61 10 7 7 19 37 44 44 37 37 43 48 48 60 49 150 277 355 283 301 227 253 280 243 184 160 297 240 247 685 263 216 242 234 231 262 263 430 520 570 678 1014 962 945 914 810 668 674 722 780 866 1012 1175 1146 1122 1086 998 1008 1029 914 823 805 804 903 1094 1250 1368 1436
0 0 0 3 10 3 4 17 4 0 0 18 25 25 28 29 24 22 8 12 21 22 21 21 22 23 38 45 76 94 94 62 210 178 170 169 121 110 79 37 28 20 22 33 30 61 48 51 162 201 234 263 281 309 361 379 393 448 461 491 574 657 695 708 787 815 756 748 869 1119 1093 1083 1132 1095 993 890 818 797 794 804 821 882 986 1124 1238
0 0 0 0 0 0 1 0 0 10 26 34 30 36 41 29 108 79 26 17 17 18 19 19 16 16 44 195 123 50 36 61 146 80 50 66 5 0 2 1 0 0 0 0 0 8 31 9 2 1 0 0 0 31 179 309 339 353 307 292 320 424 488 625 675 693 681 676 700 1085 1161 1061 1018 957 905 932 943 1001 1076 1079 1063 1076 1120 1208 1314
0 0 3 3 0 0 0 0 80 236 35 27 33 44 23 18 62 34 24 28 26 22 23 18 15 13 12 105 95 80 56 155 56 28 9 22 0 0 2 3 0 0 0 0 0 0 0 0 0 0 0 0 0 0 0 5 48 161 213 297 324 348 354 352 368 406 393 475 699 892 875 841 981 960 980 1067 983 947 1133 1178 1187 1193 1208 1232 1311
Wind_Speed
13 14 14 15 15 13 11 11 10 9 8 7 7 7 7 6 7 8 8 9 8 8 7 7 7 7 8 8 9 10 9 8 6 6 5 6 7 9 13 12 11 11 11 11 11 11 11 10 10 11 10 9 9 9 8 9 10 10 11 11 12 12 14 14 14 14 14 14 13 12 11 11 11 11 12 12 11 10 10 10 11 12 12 13 13
8 9 12 12 15 16 15 14 13 10 8 8 8 8 7 5 6 7 7 8 9 8 7 6 5 5 7 7 8 10 10 9 7 6 5 5 6 7 13 12 11 12 12 11 10 11 11 10 10 10 11 9 10 9 9 9 10 11 11 12 14 14 14 15 15 16 15 15 14 13 13 13 12 12 12 12 12 11 11 10 12 13 13 13 13
5 nan nan 8 11 15 16 15 13 11 10 8 8 7 6 7 8 7 5 7 9 8 7 6 3 3 4 5 5 6 8 8 7 7 6 5 5 5 8 13 12 12 12 11 11 11 10 10 10 10 10 10 9 11 11 11 11 12 12 13 14 15 15 16 16 16 16 16 15 15 14 14 13 13 12 12 13 13 13 12 12 12 13 14 14
8 7 8 8 10 12 15 16 14 12 11 10 9 8 8 7 7 5 3 4 6 6 7 6 4 3 3 4 3 5 7 7 8 8 7 5 4 4 4 6 11 12 12 11 11 11 10 10 10 10 10 10 10 11 12 12 12 12 13 14 15 15 16 16 16 15 15 16 15 15 15 14 14 14 13 13 14 14 13 12 12 12 13 13 15
11 10 10 10 11 13 14 15 15 15 14 13 13 12 11 9 6 4 2 2 3 3 5 6 5 3 3 3 3 4 5 5 6 6 7 4 4 3 3 4 4 10 12 11 12 11 10 10 9 9 9 9 10 11 12 12 12 13 14 14 14 15 16 16 15 14 15 15 15 15 15 14 13 13 13 13 14 15 14 13 13 12 11 11 13
15 13 13 14 13 14 15 15 15 16 16 16 16 14 13 11 9 6 2 4 3 3 3 5 4 3 3 3 3 3 4 5 3 5 6 5 3 2 2 2 2 3 3 10 11 10 10 10 9 9 9 9 9 9 11 12 13 13 14 14 15 15 15 15 15 14 14 14 14 14 13 13 14 14 14 13 12 12 12 11 10 10 11 11 10
16 17 16 16 15 14 13 15 15 15 17 17 17 15 13 11 11 8 4 5 1 4 2 1 2 4 3 3 3 3 2 3 3 5 6 5 3 3 1 1 2 2 3 3 5 10 9 9 9 8 9 8 9 10 11 12 12 13 14 14 15 16 16 15 15 14 14 14 14 14 13 13 13 13 13 12 11 10 10 10 10 10 10 10 10
16 17 18 16 16 15 14 14 15 16 16 16 16 14 13 12 11 9 5 4 3 3 2 2 2 0 2 2 3 2 1 1 1 3 6 5 4 3 1 1 2 3 2 3 4 2 10 8 8 8 8 8 8 9 10 10 11 13 13 14 15 16 16 16 15 15 13 15 15 15 14 14 13 12 11 10 9 9 9 10 10 10 9 9 9
15 16 15 15 17 17 14 15 15 16 15 14 14 13 13 11 11 10 7 5 4 1 1 2 3 3 2 1 1 2 1 2 3 2 2 4 3 3 2 1 2 2 3 3 4 5 4 9 7 8 8 8 8 8 9 9 9 12 13 14 15 15 14 15 15 15 14 14 16 16 16 15 14 13 12 10 9 8 8 9 9 9 9 8 8
17 16 14 13 14 12 11 12 14 14 13 11 11 11 11 9 7 7 4 3 4 3 1 0 0 2 3 2 0 1 1 2 2 1 2 3 2 2 2 0 1 2 3 3 4 4 5 3 9 8 8 8 8 8 8 8 8 10 11 12 12 14 14 14 14 14 13 13 14 16 15 15 15 14 13 11 9 8 7 7 7 7 7 8 8
18 17 13 9 7 6 7 11 12 12 9 6 5 6 7 4 3 4 3 2 3 2 2 2 2 2 1 2 2 2 1 3 5 6 6 4 3 3 2 1 1 2 2 2 3 4 4 5 5 4 2 9 7 7 7 8 8 10 12 12 12 13 14 14 14 14 13 12 13 14 14 14 14 13 12 10 10 8 8 7 7 8 8 7 7
12 11 8 2 2 4 5 7 10 11 6 2 4 4 4 3 5 3 2 0 1 1 1 1 4 3 2 2 1 3 3 2 3 3 6 5 4 4 3 3 2 1 1 2 3 3 3 4 5 5 5 1 8 7 8 9 9 9 11 12 12 12 13 12 13 13 12 11 13 13 13 12 12 12 11 10 9 8 7 6 6 6 5 6 7
3 5 6 5 2 3 4 5 8 12 11 8 10 9 9 6 7 5 4 3 4 3 3 1 2 4 4 3 2 3 4 3 2 3 2 3 3 2 2 2 2 1 1 1 2 2 3 4 5 6 5 6 2 8 10 10 10 10 12 12 12 13 13 13 13 13 13 13 12 11 10 10 11 12 11 9 9 9 7 6 6 7 6 6 7
7 6 6 5 5 4 6 7 8 9 10 11 10 13 12 13 11 10 8 7 7 6 5 3 3 2 2 3 4 3 3 4 2 0 1 0 0 2 3 2 1 1 2 2 2 2 3 4 4 5 5 6 6 6 2 2 5 11 10 10 12 13 13 13 14 13 13 12 11 10 9 9 10 10 10 10 10 9 7 7 6 6 6 5 6
8 8 7 6 6 7 10 11 10 10 8 6 10 11 9 17 17 15 12 12 12 9 9 9 5 2 1 3 4 6 4 3 3 4 4 2 2 2 2 3 2 2 3 3 3 3 3 4 4 5 5 5 6 6 6 3 3 6 9 9 10 12 14 14 14 13 12 13 11 9 8 9 10 10 10 9 8 8 8 8 7 7 6 6 7
8 7 7 8 9 10 10 11 10 10 11 12 16 14 13 14 20 18 14 13 12 11 10 10 7 7 4 4 1 2 4 2 2 2 7 6 6 4 4 4 4 3 5 3 3 3 3 4 4 5 5 5 6 6 6 7 3 4 7 9 11 10 11 12 14 13 13 13 12 10 9 9 10 10 10 9 9 8 8 8 7 7 7 6 6
7 7 7 8 10 10 10 10 10 11 10 12 13 13 14 17 19 19 16 14 11 10 11 11 12 10 6 5 3 2 5 3 3 3 5 5 5 6 5 5 6 6 6 5 5 4 4 4 4 5 5 6 6 6 7 7 7 6 4 5 8 9 9 11 13 14 13 12 12 11 10 10 10 10 9 8 8 8 8 8 7 7 7 7 6
7 6 7 7 9 9 10 10 10 11 10 12 13 14 15 18 18 17 18 15 11 10 11 11 14 15 13 9 8 7 5 4 1 1 3 3 5 5 5 5 6 6 6 6 7 7 7 6 6 6 7 6 6 7 7 7 7 8 9 7 7 8 8 10 12 13 14 12 10 9 9 9 9 9 8 8 7 7 7 7 8 7 7 7 7
7 6 6 8 7 7 9 9 9 9 9 10 10 11 13 13 12 13 14 11 10 11 12 11 9 12 14 15 11 8 7 5 7 2 0 3 4 4 4 6 6 6 5 5 6 7 8 9 8 8 8 8 8 8 8 8 7 6 7 8 8 8 9 10 11 12 11 11 9 8 8 8 8 8 8 8 8 8 8 7 7 7 7 7 7
7 7 7 6 5 6 6 7 7 8 8 8 8 10 8 10 10 8 9 11 11 11 7 8 10 10 9 12 12 10 9 9 9 8 6 3 1 4 3 4 6 6 5 5 5 6 6 8 8 9 9 9 10 11 10 10 9 8 8 7 9 8 8 9 10 11 10 10 10 9 8 7 7 8 8 8 8 8 8 8 8 7 7 8 8
7 7 6 5 5 5 4 5 5 6 5 5 7 7 8 10 9 8 10 9 9 8 8 10 11 11 8 7 7 9 8 8 8 9 8 6 5 5 3 5 5 4 5 5 6 7 7 7 8 8 10 10 11 11 11 12 11 11 11 9 8 8 8 8 9 9 9 9 9 8 7 7 7 7 7 8 8 7 8 8 7 7 7 8 9
7 7 5 4 4 4 3 3 4 3 3 3 3 6 7 8 9 10 8 7 7 8 10 10 10 8 8 7 8 5 7 6 7 9 7 9 9 6 7 6 5 4 5 4 5 7 8 9 9 10 10 11 12 12 11 11 12 13 11 9 8 8 8 8 8 9 9 8 8 7 6 6 5 6 6 7 7 7 6 7 7 7 8 8 9
8 7 5 2 2 2 2 2 1 0 1 3 2 2 2 3 3 4 5 6 6 7 7 9 9 8 11 9 8 8 9 7 6 8 9 9 9 7 6 8 7 2 6 7 5 6 8 10 11 11 11 12 12 12 12 12 12 11 10 11 9 8 8 8 8 8 8 8 8 7 6 5 4 4 5 5 5 5 5 5 6 7 8 8 8
5 4 2 1 1 1 1 3 3 3 5 5 4 4 3 3 3 3 4 4 5 5 6 7 9 9 10 12 10 11 11 11 10 10 11 8 9 6 6 8 8 7 4 6 7 7 7 8 9 10 11 12 12 13 13 13 12 8 10 10 10 9 8 9 9 9 8 8 8 7 6 4 3 3 3 3 3 3 3 4 5 7 7 8 8
4 4 nan 5 5 5 6 7 6 7 8 8 7 6 6 6 5 5 6 6 6 7 8 8 10 11 10 11 12 12 11 11 11 12 11 12 13 9 6 11 8 7 8 9 8 10 9 8 9 9 10 11 13 14 14 15 15 12 9 11 8 9 8 8 8 8 8 6 8 7 8 5 3 3 4 4 4 4 4 5 6 7 8 8 8
nan 12 nan 11 12 11 12 12 12 11 11 11 10 10 9 9 9 8 7 7 9 10 10 9 11 11 12 11 12 14 13 13 13 15 14 16 14 12 9 13 13 10 11 11 12 11 11 10 10 10 10 10 11 12 14 15 15 12 10 12 12 10 9 9 8 8 9 8 8 8 8 8 6 5 6 7 8 8 7 7 7 8 8 8 7
nan nan nan nan nan nan nan nan nan nan nan nan nan nan 14 13 13 12 12 12 12 13 14 14 14 13 15 16 15 16 16 15 16 16 17 17 17 17 18 12 14 15 14 15 14 13 10 13 13 12 11 11 12 12 12 13 13 11 12 14 15 12 12 11 10 9 8 8 8 8 9 9 8 8 7 8 8 9 9 8 8 8 9 9 8
nan nan nan nan nan nan nan nan nan nan nan nan nan nan nan 18 nan nan nan 17 18 18 nan nan nan 18 17 18 19 18 18 18 20 18 19 18 18 20 22 20 16 14 18 16 17 15 15 14 16 14 14 14 13 13 13 12 14 12 12 16 17 17 14 13 12 12 10 10 9 8 7 8 9 9 8 8 10 11 11 9 8 8 8 9 10
nan nan nan nan nan nan nan nan nan nan nan nan nan nan nan nan nan nan nan nan 22 21 21 22 22 nan nan nan nan nan 21 22 22 22 21 22 22 22 23 22 22 19 18 19 18 20 20 19 20 19 18 17 16 16 15 15 14 14 16 16 16 18 16 14 14 13 12 11 9 8 8 8 9 9 9 9 9 11 11 9 8 8 7 7 8
nan nan nan nan nan 20 nan nan nan nan nan nan nan nan nan nan nan nan nan nan nan nan nan 25 24 nan 26 26 26 25 25 24 23 23 24 24 24 25 25 23 25 22 21 19 17 23 22 22 22 21 22 20 19 19 19 18 15 14 16 17 17 17 15 14 14 14 14 13 12 11 11 11 12 11 10 10 9 10 11 11 10 10 9 7 7
nan nan nan nan nan nan nan nan nan nan nan nan nan nan nan nan 28 28 nan nan nan nan nan 29 28 29 29 nan nan nan nan nan nan nan 25 26 26 27 27 26 25 23 22 22 20 22 26 22 22 24 23 23 24 23 23 22 20 18 18 18 18 16 14 15 13 13 14 15 15 15 14 13 13 13 13 12 12 11 10 11 12 10 8 8 8
nan nan nan nan nan nan nan nan nan nan nan nan nan nan nan nan nan nan nan nan nan nan nan nan nan nan nan nan nan nan nan nan nan nan nan nan 28 28 28 27 27 25 24 24 21 17 25 25 22 25 26 25 27 26 25 25 24 21 21 20 19 18 19 19 16 14 14 15 16 17 17 16 15 17 17 16 13 12 12 12 12 11 11 10 7
nan nan nan nan nan nan nan nan nan nan nan nan nan nan 29 nan nan nan nan nan nan nan nan nan nan nan nan nan nan nan nan nan nan nan nan nan nan nan nan 29 29 28 28 26 23 20 23 27 27 25 26 29 29 29 27 26 27 27 25 24 23 23 23 22 21 17 15 14 14 15 17 18 18 17 16 15 14 13 13 13 13 13 12 11 9
nan nan nan 27 nan nan nan nan nan nan nan nan nan 31 nan nan nan 33 nan nan nan nan nan nan nan nan nan nan nan nan nan nan nan nan nan nan nan nan nan nan nan 31 31 30 28 26 24 28 32 33 30 31 28 30 29 29 28 30 28 27 28 27 26 25 24 23 20 18 17 16 16 18 19 19 18 16 15 15 15 15 15 15 14 14 12
nan nan nan 27 26 nan 27 26 nan nan nan 29 31 32 nan nan nan nan 34 nan nan nan nan nan nan nan nan 36 nan nan nan nan nan nan nan nan nan nan 33 34 34 34 34 35 34 32 30 29 32 33 33 33 32 30 33 33 33 33 32 30 30 31 30 29 28 27 24 22 21 19 18 17 17 18 19 18 17 17 16 16 17 17 17 16 15
28 26 27 nan nan nan nan 28 29 nan nan nan nan nan nan nan nan nan nan nan nan nan nan nan nan nan 35 nan nan nan nan nan nan nan nan nan 33 34 34 34 35 35 36 38 38 37 36 36 38 38 37 36 36 35 35 35 34 35 35 34 35 34 33 33 31 29 27 23 22 20 19 18 18 18 19 19 19 19 18 18 18 19 19 18 18
27 nan 27 27 27 28 27 28 29 30 30 32 33 nan nan nan nan nan nan nan nan nan nan nan 33 35 nan nan nan nan nan nan nan nan nan nan nan 34 35 36 37 37 39 41 39 40 39 38 38 39 40 40 39 37 37 37 38 39 39 38 37 36 36 36 36 34 31 27 24 22 21 20 19 19 19 19 19 20 20 20 20 20 20 19 19
nan nan 26 nan 27 27 28 28 29 30 30 31 31 32 32 nan nan nan nan nan nan nan nan nan 33 34 nan nan nan nan nan nan nan nan nan nan nan 36 36 37 38 39 39 41 42 41 41 40 40 39 42 41 42 40 39 39 37 38 39 39 39 39 38 38 38 38 38 35 33 31 28 25 22 20 20 21 20 21 21 22 22 22 20 19 19
25 25 25 nan 27 28 28 29 30 30 30 31 30 30 30 31 30 30 nan nan nan 30 30 31 33 35 nan nan nan nan nan nan nan nan nan nan 37 37 38 38 39 40 41 41 43 44 43 42 41 39 39 41 42 40 39 41 39 38 38 39 39 40 41 39 38 39 40 36 34 31 31 31 30 29 25 22 21 20 21 22 23 23 22 21 20
25 25 26 26 27 28 29 29 29 30 30 30 30 30 29 29 30 30 31 32 32 32 32 33 35 nan nan nan nan nan nan nan nan nan nan nan 40 nan 40 40 41 41 41 42 42 43 43 42 40 37 38 39 42 42 41 43 42 40 40 40 38 39 40 42 41 40 42 41 39 39 38 36 33 29 26 25 23 22 22 23 23 23 23 23 23
25 26 26 27 28 28 29 30 30 30 30 30 30 30 30 31 31 31 31 32 33 34 35 36 nan nan nan nan nan nan nan 36 33 34 nan nan nan nan nan 41 42 41 41 41 41 41 42 41 39 39 38 37 38 39 39 40 39 38 39 42 40 39 40 41 41 42 41 41 41 41 40 39 36 34 33 31 30 28 26 24 27 25 24 25 24
26 27 28 29 30 30 30 30 31 31 31 32 29 27 32 34 33 33 33 33 34 36 37 nan nan nan nan nan nan 37 34 32 nan nan nan nan nan nan 40 42 42 41 41 41 41 41 41 41 40 40 39 38 37 39 39 40 39 40 40 41 40 39 41 41 42 42 43 43 42 40 39 41 40 36 35 32 32 32 31 31 30 29 28 25 24
28 29 31 31 30 nan nan nan nan 31 32 32 34 nan nan nan nan nan nan nan nan nan nan nan nan nan nan nan nan nan 39 38 39 34 nan nan nan nan 33 35 39 42 42 41 41 42 42 41 42 43 42 40 39 40 40 40 41 40 39 40 39 41 41 41 40 43 46 45 43 44 41 43 43 38 36 34 33 34 33 31 28 26 25 26 26
30 32 32 nan nan nan nan 30 nan nan 32 34 nan nan nan nan nan 36 nan nan nan nan nan nan nan nan nan nan nan nan nan nan nan nan 38 34 33 35 37 38 38 38 40 42 42 43 44 43 43 43 43 42 41 42 42 43 41 41 40 40 41 41 40 40 41 41 45 48 46 44 40 44 45 40 37 35 35 36 34 31 28 27 25 25 26
31 31 30 30 nan nan nan nan nan nan nan 32 nan nan nan nan nan nan nan nan nan nan nan nan nan nan nan nan nan nan nan 37 39 43 nan nan 40 39 39 38 40 40 42 41 42 44 45 46 44 43 44 45 44 43 45 45 46 43 43 41 42 40 40 39 39 41 43 49 48 45 40 41 47 43 38 37 37 37 35 32 28 27 26 25 24
30 29 nan nan nan nan nan nan nan nan nan 31 nan nan nan nan nan nan nan nan nan nan nan nan nan nan nan nan nan nan nan nan nan nan nan 45 45 nan nan nan nan 44 42 43 44 44 46 47 47 45 46 48 45 45 44 45 45 43 43 42 43 41 40 38 39 40 42 47 45 46 42 40 45 43 39 38 39 38 37 34 30 29 27 25 25
28 nan nan nan nan nan nan nan nan nan nan nan nan nan nan nan nan nan nan nan nan nan nan nan nan nan nan nan nan nan nan nan nan 42 44 44 45 nan nan nan nan nan 49 49 49 50 50 49 48 48 48 49 48 47 46 46 45 45 45 43 43 44 44 44 43 41 40 43 44 46 41 41 47 45 41 39 40 39 38 37 33 30 28 26 25
nan nan nan nan nan nan nan nan nan nan nan nan nan nan nan nan nan nan nan nan nan nan nan nan nan nan nan nan nan nan nan nan 39 34 36 42 45 44 45 47 48 49 49 49 49 48 50 53 52 51 50 49 48 48 48 48 48 48 46 47 48 47 45 42 40 42 41 43 44 44 42 41 44 44 41 41 42 40 39 39 36 32 29 28 26
nan nan nan nan nan nan nan nan nan nan nan nan nan nan nan nan nan nan nan nan nan nan nan nan nan nan nan nan nan nan nan nan 36 36 39 40 48 47 nan nan nan nan nan nan nan nan nan nan 48 46 43 44 43 43 43 43 46 48 50 49 47 48 44 42 41 41 40 42 45 44 42 40 43 45 43 42 43 41 39 38 39 36 32 30 28
nan nan nan nan nan nan nan nan nan nan nan nan nan nan nan nan 35 nan nan nan nan nan nan nan nan nan nan 35 37 nan nan nan 41 nan nan nan nan nan nan nan nan nan nan nan nan nan nan nan nan nan nan nan nan nan 39 39 40 46 49 45 47 48 44 44 42 42 42 42 43 46 44 41 43 47 46 46 45 44 40 38 39 39 36 34 29
nan nan nan nan nan nan nan nan nan 31 nan nan nan nan nan nan nan nan nan nan nan nan nan nan nan nan nan 42 nan nan nan 41 nan nan nan nan nan nan nan nan nan nan nan nan nan nan nan nan nan nan nan nan nan nan nan nan nan 38 44 43 45 45 43 44 44 45 42 42 42 47 43 44 43 44 48 49 47 45 43 40 39 41 41 40 38
Wind_Direction
355 1 342 347 344 334 340 344 349 354 349 343 345 359 5 9 5 2 10 14 24 38 26 8 4 3 359 4 22 26 15 11 19 38 53 61 75 77 61 62 68 72 74 79 80 82 84 88 89 89 91 89 73 58 50 48 53 57 57 60 65 68 66 67 67 66 67 68 69 72 75 78 83 91 96 100 102 104 107 111 113 111 107 106 105
348 349 340 344 331 328 333 336 338 335 336 343 342 343 345 339 343 354 13 8 7 23 16 15 354 10 8 3 16 26 21 15 17 28 49 58 65 78 63 55 57 65 65 69 69 76 80 84 86 87 84 88 81 67 59 62 65 67 68 66 69 71 72 72 73 75 75 75 74 73 77 82 84 86 91 95 97 98 98 97 98 100 101 101 105
309 nan nan 326 318 320 320 319 320 323 322 332 325 336 336 326 330 347 20 8 7 8 4 20 6 7 21 9 28 33 26 24 25 29 39 57 60 65 76 54 52 53 57 57 56 62 70 78 78 79 76 78 80 75 70 69 72 73 76 74 75 76 77 76 76 77 79 81 83 84 85 87 89 91 93 94 94 95 97 97 96 97 100 103 103
284 270 264 267 295 303 303 305 308 305 304 308 307 307 323 318 317 327 31 17 3 360 1 8 4 13 6 8 37 59 38 27 28 37 40 43 54 62 78 92 55 44 45 48 47 48 56 64 70 70 70 73 77 77 75 74 74 76 78 76 76 78 78 79 79 82 83 83 85 87 89 91 91 94 95 97 97 95 94 96 96 95 97 102 107
288 285 279 277 283 289 297 302 299 294 292 288 293 291 297 296 293 288 330 10 13 22 353 3 358 13 17 356 3 65 80 50 33 49 52 42 45 58 81 96 103 46 34 40 41 41 44 50 57 63 66 70 72 78 75 76 78 78 76 76 75 76 77 79 81 85 86 87 88 89 91 95 98 99 97 98 98 96 92 89 91 97 98 96 103
292 289 288 286 289 295 299 302 298 291 283 276 281 281 285 286 285 275 308 339 31 76 15 4 18 5 7 335 340 41 73 97 73 62 66 66 54 46 66 98 113 127 99 39 36 41 44 47 51 55 60 64 69 76 78 75 76 77 78 75 72 71 73 76 78 81 81 82 84 85 89 94 97 97 97 100 102 101 101 101 102 102 104 103 101
291 294 293 294 293 296 302 309 300 289 283 278 277 272 274 278 271 268 269 310 30 112 100 69 357 357 354 331 349 349 7 90 104 76 69 71 65 61 49 84 114 139 154 168 59 42 46 53 53 54 56 61 65 67 73 73 72 74 75 74 71 68 66 67 69 71 70 72 74 77 79 83 87 90 93 98 101 103 101 97 95 93 97 102 103
287 290 292 296 297 300 310 305 304 296 289 283 278 278 264 261 255 246 263 302 311 123 162 131 138 307 302 327 315 303 344 28 90 87 69 60 59 49 53 110 123 131 153 178 192 113 45 50 56 59 59 60 64 65 66 71 72 70 71 70 67 65 63 59 59 61 59 59 63 64 66 71 75 79 85 90 95 98 98 96 92 90 91 94 98
269 277 283 292 298 301 311 318 312 306 298 282 272 259 249 243 237 228 233 241 276 300 235 130 125 143 172 293 317 269 218 74 49 45 106 89 51 42 40 113 142 118 145 170 190 197 66 45 51 59 63 64 63 63 65 69 73 72 69 67 64 62 61 60 58 57 56 54 54 55 58 62 65 68 71 76 81 86 89 91 90 86 86 87 90
267 266 276 287 292 301 316 324 316 308 305 291 275 263 262 264 234 227 239 247 274 310 346 352 109 144 131 105 360 264 175 122 115 171 204 161 133 55 60 76 184 153 153 161 178 191 198 89 50 52 59 64 65 64 63 65 68 71 71 71 69 65 61 57 56 55 55 53 51 51 53 56 59 62 65 62 65 71 75 80 81 79 78 79 84
269 265 266 282 296 307 330 333 323 304 297 268 239 267 279 243 192 186 194 252 287 307 330 270 248 235 159 152 199 233 207 162 190 200 207 200 168 136 164 151 205 188 170 169 181 190 190 200 199 204 171 56 60 60 60 57 57 61 64 66 67 65 63 60 57 54 52 47 49 50 51 51 55 59 60 57 56 61 65 69 66 64 67 68 79
272 255 234 215 338 342 352 344 335 309 277 22 26 42 37 54 89 58 53 124 347 46 104 211 230 247 247 245 210 222 225 190 168 187 208 195 161 162 155 176 194 188 183 182 199 201 194 193 200 211 225 122 50 50 51 51 49 47 52 56 59 62 61 60 56 53 51 47 46 47 45 46 49 55 60 59 60 63 68 69 67 62 57 69 78
210 183 156 131 90 22 18 22 6 341 345 48 82 71 68 67 85 75 56 60 67 46 73 298 240 217 238 256 228 250 251 251 170 181 225 188 174 162 178 193 171 192 331 269 240 233 226 216 205 207 214 228 222 52 47 45 44 41 43 46 49 52 53 53 54 53 50 47 48 47 41 32 32 39 44 50 54 61 66 68 67 70 73 75 82
133 130 116 99 103 99 72 62 47 37 3 1 37 76 91 97 85 87 82 72 80 52 47 16 80 54 266 226 216 239 300 292 285 185 303 335 151 186 223 246 219 171 229 256 269 274 255 247 239 230 222 224 232 235 237 28 35 37 36 38 42 46 47 47 48 49 50 49 46 39 32 26 23 24 30 38 49 55 59 63 66 67 69 72 84
118 113 99 105 98 94 82 70 66 59 41 341 41 51 50 71 81 80 79 77 82 75 55 53 73 67 97 245 213 230 231 252 306 338 336 326 290 276 263 266 287 261 246 246 254 264 263 261 260 255 249 241 238 240 242 254 270 23 33 31 32 37 41 42 42 42 40 43 41 34 25 20 22 25 29 34 39 47 57 64 70 76 81 83 82
96 96 109 110 100 89 88 83 75 70 58 37 52 52 46 63 77 74 72 75 67 73 60 52 46 14 47 35 47 272 183 153 39 302 323 332 323 327 296 284 281 276 257 253 255 254 256 266 275 268 265 263 256 250 249 249 283 13 24 28 31 26 31 36 37 34 33 35 33 25 20 20 22 22 25 29 34 46 56 62 71 78 85 87 78
106 112 113 106 97 95 95 85 81 73 72 72 68 60 53 55 70 82 76 69 62 67 66 52 53 54 26 21 59 64 51 86 240 176 283 295 318 318 305 295 290 287 280 278 272 273 268 262 263 268 274 271 268 262 255 255 258 263 290 10 24 24 24 26 35 37 33 34 31 24 21 22 23 23 27 30 36 46 55 61 69 78 82 80 68
117 115 108 96 88 91 92 84 77 76 71 67 62 59 56 58 51 58 68 65 56 65 65 66 57 63 59 47 24 27 38 54 65 146 250 310 271 288 293 293 286 285 284 285 287 279 272 263 258 260 266 272 275 269 263 260 263 265 265 276 1 15 16 17 27 39 44 41 38 32 29 26 25 26 30 41 48 55 59 63 68 73 72 65 53
122 112 102 94 91 90 80 81 82 79 71 65 80 85 79 73 67 59 62 48 45 52 54 50 64 70 61 62 59 39 20 12 41 30 184 278 292 284 278 285 281 277 280 287 290 280 271 269 268 265 265 265 267 271 270 271 283 291 305 305 329 353 6 14 18 28 35 41 43 42 38 34 31 30 32 39 50 59 65 67 68 63 54 44 36
126 115 107 108 102 93 85 85 83 82 76 68 46 62 72 80 74 58 70 48 32 33 35 37 36 53 53 62 60 57 35 28 16 12 4 5 312 279 280 278 274 272 270 267 271 272 269 268 270 270 267 268 267 266 271 275 276 280 280 327 322 331 355 6 14 22 29 33 34 37 38 39 41 41 41 44 50 60 67 68 64 53 35 26 21
131 121 122 118 115 95 89 80 77 81 79 59 53 57 49 54 41 52 45 47 25 13 4 20 26 34 23 58 51 49 45 22 5 347 13 360 30 360 351 277 286 285 270 260 253 253 254 256 262 267 264 263 266 269 270 271 273 274 275 310 330 337 339 354 3 11 19 22 24 27 33 35 41 48 52 54 57 61 63 61 52 31 14 6 8
129 124 139 136 116 123 102 76 73 81 80 63 18 41 45 39 24 28 20 29 24 5 357 9 20 16 348 4 12 8 5 10 9 354 344 360 14 351 332 331 328 325 309 287 281 268 262 256 254 254 254 254 259 264 269 272 269 270 278 309 318 329 343 340 341 350 358 360 4 9 21 23 30 41 53 59 62 62 57 49 36 20 10 5 4
172 150 153 152 128 124 101 86 101 104 297 309 325 320 340 7 32 5 4 8 15 6 2 350 351 347 335 2 8 354 338 347 342 339 334 332 339 355 352 339 342 5 319 330 314 297 282 271 264 259 256 255 257 262 265 267 271 276 294 298 312 318 324 331 329 336 341 341 343 342 353 9 12 22 37 49 53 54 47 31 17 6 360 359 358
176 157 149 162 254 313 296 249 265 318 311 291 284 277 274 285 289 310 328 341 342 342 341 342 342 340 340 343 343 337 334 338 332 326 324 322 308 308 308 295 297 322 310 298 310 310 302 293 281 274 269 264 262 262 263 265 266 300 286 296 306 312 311 313 316 316 330 326 323 323 327 350 343 346 359 13 20 21 21 6 349 351 352 353 359
182 176 nan 219 240 257 261 273 274 264 257 258 260 247 247 249 247 260 284 290 298 307 321 330 327 331 335 331 328 324 327 324 314 309 306 302 304 305 304 298 302 289 287 288 285 293 308 301 298 293 284 275 268 264 263 263 261 270 292 273 305 301 307 308 309 305 308 314 304 309 302 310 310 301 300 307 313 330 342 333 333 342 343 344 345
nan 230 nan 247 256 264 269 267 264 263 264 264 263 259 273 279 285 288 273 271 281 290 299 302 305 315 311 313 314 316 316 310 307 301 302 294 295 304 295 280 287 288 279 279 278 275 272 292 306 301 292 286 279 274 267 266 264 273 291 273 272 290 296 297 299 298 294 292 291 288 291 292 291 288 284 290 297 304 309 319 325 333 336 333 341
nan nan nan nan nan nan nan nan nan nan nan nan nan nan 269 275 276 274 270 272 271 274 283 285 287 290 296 304 304 303 304 302 298 299 297 299 297 295 290 281 266 274 275 274 269 284 285 275 291 291 296 292 289 286 282 274 274 285 285 270 260 271 279 285 285 288 287 285 282 282 284 285 280 279 279 283 293 298 303 314 325 319 319 321 328
nan nan nan nan nan nan nan nan nan nan nan nan nan nan nan 271 nan nan nan 276 274 276 nan nan nan 289 290 287 286 290 290 291 293 293 292 289 285 281 282 279 273 258 261 261 268 268 276 274 265 282 287 288 288 288 289 289 273 284 290 269 263 259 267 271 275 278 281 276 272 273 277 273 273 276 277 281 285 291 298 305 314 318 314 316 321
nan nan nan nan nan nan nan nan nan nan nan nan nan nan nan nan nan nan nan nan 273 275 279 281 283 nan nan nan nan nan 283 283 281 282 284 283 284 283 283 286 284 277 265 262 260 266 259 274 268 260 275 278 279 279 278 277 279 283 276 274 269 263 265 271 271 272 275 274 267 261 258 256 255 257 259 263 274 284 291 295 303 306 314 321 316
nan nan nan nan nan 262 nan nan nan nan nan nan nan nan nan nan nan nan nan nan nan nan nan 280 280 nan 281 279 279 278 278 274 272 272 272 275 276 279 280 280 280 282 277 270 259 267 261 261 268 263 259 265 269 271 274 273 277 284 276 277 274 270 277 280 276 273 272 272 269 263 258 253 251 253 255 254 256 265 274 283 291 294 303 311 314
nan nan nan nan nan nan nan nan nan nan nan nan nan nan nan nan 274 273 nan nan nan nan nan 274 275 275 275 nan nan nan nan nan nan nan 266 270 273 274 276 277 278 280 277 273 260 258 268 259 259 264 264 260 262 262 263 266 268 274 272 272 274 280 289 281 287 278 270 268 265 260 256 251 249 250 252 253 254 258 266 272 278 284 291 296 299
nan nan nan nan nan nan nan nan nan nan nan nan nan nan nan nan nan nan nan nan nan nan nan nan nan nan nan nan nan nan nan nan nan nan nan nan 263 267 271 274 275 274 271 268 268 256 263 265 256 254 260 258 260 260 259 260 264 272 267 267 269 276 274 271 279 281 272 266 262 259 257 254 251 250 254 257 256 256 260 265 269 271 272 279 284
nan nan nan nan nan nan nan nan nan nan nan nan nan nan 276 nan nan nan nan nan nan nan nan nan nan nan nan nan nan nan nan nan nan nan nan nan nan nan nan 266 267 267 270 271 268 261 254 261 261 253 250 254 252 260 259 258 258 261 264 265 265 265 267 268 268 274 278 274 268 262 257 254 252 251 252 253 254 255 256 259 261 263 264 266 266
nan nan nan 275 nan nan nan nan nan nan nan nan nan 280 nan nan nan 278 nan nan nan nan nan nan nan nan nan nan nan nan nan nan nan nan nan nan nan nan nan nan nan 262 266 268 267 262 255 251 253 252 250 255 252 255 258 257 255 257 259 260 261 263 262 262 262 262 272 274 275 271 265 259 256 255 255 253 252 253 254 255 256 258 261 262 265
nan nan nan 275 275 nan 277 278 nan nan nan 277 276 279 nan nan nan nan 279 nan nan nan nan nan nan nan nan 273 nan nan nan nan nan nan nan nan nan nan 262 262 261 262 261 265 265 264 261 257 259 258 258 256 257 250 250 252 252 253 253 254 257 259 260 259 258 258 263 270 272 272 270 264 257 254 253 251 250 249 250 251 252 255 258 261 263
269 271 274 nan nan nan nan 278 278 nan nan nan nan nan nan nan nan nan nan nan nan nan nan nan nan nan 275 nan nan nan nan nan nan nan nan nan 263 264 263 264 265 265 266 264 265 267 266 262 263 264 263 261 257 255 252 253 253 252 254 250 249 252 254 257 258 256 257 262 264 267 268 267 262 257 254 251 248 246 246 247 249 251 255 258 261
272 nan 273 274 274 273 274 274 274 275 276 277 278 nan nan nan nan nan nan nan nan nan nan nan 278 279 nan nan nan nan nan nan nan nan nan nan nan 264 265 267 267 268 269 269 268 268 267 267 264 265 266 264 263 260 257 252 251 253 254 254 253 252 251 252 252 252 252 253 255 258 260 262 262 260 258 255 252 248 246 246 246 248 251 254 259
nan nan 272 nan 274 274 273 274 274 275 275 276 277 278 278 nan nan nan nan nan nan nan nan nan 280 282 nan nan nan nan nan nan nan nan nan nan nan 267 268 269 270 270 269 270 271 269 269 268 268 264 264 265 262 262 261 259 254 251 250 251 251 252 251 249 252 253 252 251 253 254 256 257 257 258 257 256 253 249 246 246 246 247 248 251 256
274 273 273 nan 274 275 275 275 276 276 276 276 277 278 279 280 282 282 nan nan nan 279 280 282 283 281 nan nan nan nan nan nan nan nan nan nan 269 267 267 267 267 268 269 269 270 270 270 269 267 268 267 266 266 262 260 259 258 256 252 248 247 251 254 255 251 253 256 255 254 252 251 252 254 256 257 258 256 253 251 251 250 249 248 250 253
270 272 272 273 274 274 275 276 277 277 278 278 279 281 283 284 284 284 286 285 285 285 285 284 283 nan nan nan nan nan nan nan nan nan nan nan 270 nan 267 267 266 266 267 267 268 269 269 269 269 267 267 266 264 264 260 258 256 254 256 256 251 247 247 251 253 251 251 254 253 252 252 252 251 252 253 253 254 255 255 253 252 251 250 250 252
271 272 273 272 272 272 273 275 275 277 279 282 283 284 283 281 283 284 283 284 285 286 285 284 nan nan nan nan nan nan nan 281 279 271 nan nan nan nan nan 268 266 266 265 266 266 266 267 268 266 267 265 263 265 265 261 261 261 259 255 257 255 252 249 246 247 251 252 250 251 253 253 255 253 252 253 252 254 255 252 255 251 252 252 251 251
273 273 273 274 275 278 279 278 279 279 281 281 283 274 273 280 282 281 281 282 282 283 284 nan nan nan nan nan nan 287 286 282 nan nan nan nan nan nan 270 270 270 267 266 266 265 265 265 263 264 263 262 263 262 264 264 263 261 256 251 251 251 248 249 248 245 248 251 251 250 249 251 254 256 252 253 253 252 255 253 253 252 252 253 257 255
274 276 277 276 277 nan nan nan nan 279 280 282 271 nan nan nan nan nan nan nan nan nan nan nan nan nan nan nan nan nan 283 280 278 275 nan nan nan nan 261 261 264 268 268 267 267 267 266 265 263 262 261 259 259 260 261 261 261 259 257 254 252 250 249 248 245 243 248 254 249 249 248 253 256 254 252 253 252 253 254 253 252 253 253 253 256
274 274 274 nan nan nan nan 277 nan nan 279 275 nan nan nan nan nan 281 nan nan nan nan nan nan nan nan nan nan nan nan nan nan nan nan 278 274 268 264 263 263 262 262 268 270 268 266 267 266 264 264 263 261 258 258 258 260 259 259 259 257 254 252 248 247 248 247 247 249 249 246 245 250 254 252 250 251 251 252 253 253 252 252 251 251 253
276 275 276 275 nan nan nan nan nan nan nan 284 nan nan nan nan nan nan nan nan nan nan nan nan nan nan nan nan nan nan nan 277 275 275 nan nan 271 267 263 261 263 264 265 267 270 270 268 267 265 264 265 262 260 259 259 259 259 258 258 256 255 254 253 249 247 244 243 246 245 243 241 246 252 249 247 248 250 250 250 250 250 250 250 251 252
276 277 nan nan nan nan nan nan nan nan nan 288 nan nan nan nan nan nan nan nan nan nan nan nan nan nan nan nan nan nan nan nan nan nan nan 276 274 nan nan nan nan 267 264 266 265 265 266 267 266 264 263 264 262 260 259 257 257 256 256 255 256 255 254 252 249 247 245 248 247 243 239 241 249 248 244 244 247 247 249 251 252 251 250 250 251
284 nan nan nan nan nan nan nan nan nan nan nan nan nan nan nan nan nan nan nan nan nan nan nan nan nan nan nan nan nan nan nan nan 276 275 274 274 nan nan nan nan nan 268 267 266 265 263 263 263 262 260 259 259 257 255 254 255 256 256 254 253 253 251 249 245 245 241 246 248 247 239 239 249 248 245 243 243 243 245 247 251 251 251 250 250
nan nan nan nan nan nan nan nan nan nan nan nan nan nan nan nan nan nan nan nan nan nan nan nan nan nan nan nan nan nan nan nan 275 271 273 276 276 275 273 271 270 268 267 265 261 260 261 262 261 260 260 259 256 256 255 255 253 254 253 252 252 252 250 249 247 246 244 246 251 250 242 239 246 250 244 244 244 241 240 243 245 250 250 250 249
nan nan nan nan nan nan nan nan nan nan nan nan nan nan nan nan nan nan nan nan nan nan nan nan nan nan nan nan nan nan nan nan 279 275 274 271 274 273 nan nan nan nan nan nan nan nan nan nan 257 256 256 255 253 252 252 253 255 254 252 251 253 255 253 250 249 249 246 245 248 252 246 239 242 248 243 242 244 242 238 238 242 245 250 251 250
nan nan nan nan nan nan nan nan nan nan nan nan nan nan nan nan 290 nan nan nan nan nan nan nan nan nan nan 291 287 nan nan nan 284 nan nan nan nan nan nan nan nan nan nan nan nan nan nan nan nan nan nan nan nan nan 256 255 255 258 259 255 254 253 252 251 247 247 245 247 247 251 247 243 240 244 245 242 242 245 243 240 240 241 246 248 248
nan nan nan nan nan nan nan nan nan 294 nan nan nan nan nan nan nan nan nan nan nan nan nan nan nan nan nan 295 nan nan nan 292 nan nan nan nan nan nan nan nan nan nan nan nan nan nan nan nan nan nan nan nan nan nan nan nan nan 252 258 258 256 255 252 251 250 247 243 247 250 253 248 243 244 242 246 243 243 243 245 244 241 242 243 244 245